Weather History for Monroe, WI

Change the Weather History Date:

Tuesday, January 21, 2014

  Actual Average Record
Temperature  
Mean Temperature 1 °F -  
Max Temperature 6 °F 0 °F 35 °F (2002)
Min Temperature -4 °F - -11 °F (2000)
Degree Days  
Heating Degree Days 64    
Moisture  
Dew Point -9 °F    
Average Humidity 65    
Maximum Humidity 76    
Minimum Humidity 55    
Precipitation  
Precipitation 0.00 in - - ()
Sea Level Pressure  
Sea Level Pressure 30.22 in    
Wind  
Wind Speed 12 mph (NW)    
Max Wind Speed 23 mph    
Max Gust Speed 29 mph    
Visibility 10 miles    
Events      
Averages and records for this station are not official NWS values.
T = Trace of Precipitation, MM = Missing Value Source: NWS Daily Summary

Daily Weather History Graph

Daily Weather History Graph

Search for Another Location

Airport:

Trip Planner

Search our weather history database for the weather conditions in past years. The results will help you decide how hot, cold, wet, or windy it might be!

Date:

Astronomy

Jan. 21, 2014 Rise Set
Actual Time 7:22 AM CST 4:57 PM CST
Civil Twilight 6:51 AM CST 5:28 PM CST
Nautical Twilight 6:16 AM CST 6:02 PM CST
Astronomical Twilight 5:43 AM CST 6:36 PM CST
Moon 10:39 PM CST (1/21) 9:44 AM CST (1/21)
Length of Visible Light 10h 37m
Length of Day
9h 35m
Waning Gibbous, 74% of the Moon is Illuminated
Jan 21
Waning Gibbous
Jan 23
Last Quarter
Jan 30
New
Feb 6
First Quarter
Feb 14
Full

Hourly Weather History & Observations

Time (CST) Temp. Windchill Dew Point Humidity Pressure Visibility Wind Dir Wind Speed Gust Speed Precip Events Conditions
12:15 AM 6.8 °F -13.4 °F -4.5 °F 60% 30.15 in 10.0 mi North 20.7 mph 24.2 mph N/A   Overcast
12:35 AM 6.3 °F -15.0 °F -4.7 °F 61% 30.15 in 10.0 mi North 23.0 mph 28.8 mph N/A   Mostly Cloudy
12:55 AM 5.9 °F -13.0 °F -4.9 °F 61% 30.16 in 10.0 mi North 17.3 mph 24.2 mph N/A   Mostly Cloudy
1:15 AM 5.7 °F -14.8 °F -4.5 °F 63% 30.17 in 10.0 mi North 20.7 mph 24.2 mph N/A   Mostly Cloudy
1:40 AM 4.8 °F -13.8 °F -4.9 °F 64% 30.19 in 10.0 mi North 16.1 mph 24.2 mph N/A   Scattered Clouds
1:55 AM 3.4 °F -15.7 °F -6.7 °F 63% 30.19 in 10.0 mi North 16.1 mph 27.6 mph N/A   Scattered Clouds
2:15 AM 3.0 °F -14.8 °F -6.7 °F 64% 30.21 in 10.0 mi North 13.8 mph 25.3 mph N/A   Clear
2:35 AM 2.3 °F -15.7 °F -7.6 °F 63% 30.22 in 10.0 mi North 13.8 mph 21.9 mph N/A   Clear
2:55 AM 1.8 °F -16.4 °F -8.0 °F 64% 30.23 in 10.0 mi North 13.8 mph 18.4 mph N/A   Clear
3:15 AM 1.4 °F -15.3 °F -7.8 °F 65% 30.24 in 10.0 mi North 11.5 mph 16.1 mph N/A   Clear
3:35 AM 1.2 °F -17.1 °F -7.4 °F 67% 30.24 in 10.0 mi North 13.8 mph 19.6 mph N/A   Clear
3:55 AM 0.5 °F -16.5 °F -8.3 °F 66% 30.24 in 10.0 mi NNW 11.5 mph 20.7 mph N/A   Clear
4:15 AM -0.2 °F -17.4 °F -8.5 °F 68% 30.25 in 10.0 mi North 11.5 mph 20.7 mph N/A   Clear
4:40 AM -0.8 °F -19.6 °F -8.5 °F 70% 30.26 in 10.0 mi North 13.8 mph 18.4 mph N/A   Clear
4:55 AM -1.3 °F -18.7 °F -8.9 °F 70% 30.27 in 10.0 mi North 11.5 mph 20.7 mph N/A   Clear
5:15 AM -1.5 °F -19.8 °F -9.2 °F 70% 30.27 in 10.0 mi NNW 12.7 mph 18.4 mph N/A   Clear
5:35 AM -2.2 °F -19.9 °F -9.6 °F 71% 30.27 in 10.0 mi North 11.5 mph 18.4 mph N/A   Clear
5:55 AM -2.4 °F -20.1 °F -9.6 °F 71% 30.27 in 10.0 mi North 11.5 mph 16.1 mph N/A   Clear
6:15 AM -3.1 °F -16.7 °F -9.8 °F 73% 30.29 in 10.0 mi NNW 6.9 mph - N/A   Clear
6:35 AM -3.6 °F -17.3 °F -10.1 °F 74% 30.28 in 10.0 mi NNW 6.9 mph - N/A   Clear
6:55 AM -4.0 °F -19.0 °F -10.3 °F 74% 30.28 in 10.0 mi NNW 8.1 mph - N/A   Clear
7:15 AM -4.2 °F -16.5 °F -10.3 °F 75% 30.29 in 10.0 mi NNW 5.8 mph - N/A   Clear
7:35 AM -4.5 °F -20.8 °F -10.3 °F 76% 30.29 in 10.0 mi North 9.2 mph - N/A   Clear
7:55 AM -4.0 °F -19.0 °F -10.3 °F 74% 30.29 in 10.0 mi NNW 8.1 mph - N/A   Clear
8:15 AM -3.6 °F -18.6 °F -10.5 °F 72% 30.29 in 10.0 mi NNW 8.1 mph - N/A   Clear
8:35 AM -3.1 °F -19.1 °F -10.5 °F 71% 30.29 in 10.0 mi NNW 9.2 mph - N/A   Clear
8:55 AM -2.6 °F -17.3 °F -10.7 °F 68% 30.29 in 10.0 mi North 8.1 mph - N/A   Clear
9:15 AM -2.0 °F -20.5 °F -10.5 °F 67% 30.29 in 10.0 mi North 12.7 mph 17.3 mph N/A   Clear
9:35 AM -1.3 °F -17.8 °F -10.3 °F 66% 30.29 in 10.0 mi NNW 10.4 mph - N/A   Clear
9:55 AM -0.2 °F -14.4 °F -9.4 °F 65% 30.29 in 10.0 mi North 8.1 mph - N/A   Clear
10:15 AM 0.1 °F -16.0 °F -9.4 °F 64% 30.30 in 10.0 mi North 10.4 mph - N/A   Clear
10:35 AM 0.5 °F -13.6 °F -9.4 °F 63% 30.30 in 10.0 mi NW 8.1 mph - N/A   Clear
10:55 AM 1.4 °F -13.5 °F -9.2 °F 61% 30.29 in 10.0 mi NNW 9.2 mph - N/A   Clear
11:15 AM 2.1 °F -7.4 °F -8.7 °F 61% 30.29 in 10.0 mi NW 4.6 mph - N/A   Clear
11:35 AM 2.3 °F -10.2 °F -8.7 °F 60% 30.28 in 10.0 mi NNW 6.9 mph - N/A   Clear
11:55 AM 3.0 °F -6.4 °F -8.7 °F 58% 30.27 in 10.0 mi NW 4.6 mph - N/A   Clear
12:15 PM 3.6 °F -3.8 °F -8.5 °F 57% 30.27 in 10.0 mi NNW 3.5 mph - N/A   Clear
12:35 PM 4.5 °F -2.7 °F -8.0 °F 57% 30.26 in 10.0 mi NW 3.5 mph - N/A   Clear
12:55 PM 5.2 °F -6.7 °F -8.0 °F 55% 30.25 in 10.0 mi WNW 6.9 mph - N/A   Clear
1:15 PM 5.5 °F -7.4 °F -7.4 °F 55% 30.24 in 10.0 mi West 8.1 mph - N/A   Clear
1:35 PM 5.4 °F -7.6 °F -7.6 °F 55% 30.23 in 10.0 mi West 8.1 mph - N/A   Clear
1:55 PM 5.4 °F -9.6 °F -7.6 °F 55% 30.22 in 10.0 mi West 10.4 mph - N/A   Clear
2:15 PM 5.5 °F -5.0 °F -6.7 °F 57% 30.22 in 10.0 mi West 5.8 mph - N/A   Clear
2:35 PM 5.0 °F -8.1 °F -7.8 °F 56% 30.22 in 10.0 mi West 8.1 mph - N/A   Clear
3:00 PM 3.7 °F -7.1 °F -8.5 °F 57% 30.21 in 10.0 mi West 5.8 mph - N/A   Clear
3:15 PM 3.2 °F -6.2 °F -8.5 °F 58% 30.21 in 10.0 mi West 4.6 mph - N/A   Clear
3:35 PM 2.8 °F -4.6 °F -8.5 °F 59% 30.21 in 10.0 mi West 3.5 mph - N/A   Clear
3:55 PM 3.2 °F -4.2 °F -8.5 °F 58% 30.21 in 10.0 mi West 3.5 mph - N/A   Clear
4:15 PM 2.8 °F -8.2 °F -8.5 °F 59% 30.21 in 10.0 mi WSW 5.8 mph - N/A   Clear
4:35 PM 2.7 °F -6.8 °F -9.0 °F 58% 30.20 in 10.0 mi WSW 4.6 mph - N/A   Clear
4:55 PM 2.3 °F -8.8 °F -8.5 °F 61% 30.19 in 10.0 mi WSW 5.8 mph - N/A   Clear
5:15 PM 1.6 °F -12.2 °F -8.7 °F 62% 30.19 in 10.0 mi West 8.1 mph - N/A   Clear
5:35 PM 1.4 °F -9.9 °F -8.9 °F 62% 30.19 in 10.0 mi SW 5.8 mph - N/A   Clear
5:55 PM 1.4 °F -12.5 °F -9.0 °F 62% 30.19 in 10.0 mi WSW 8.1 mph - N/A   Clear
6:15 PM 0.9 °F -11.9 °F -8.7 °F 64% 30.18 in 10.0 mi WSW 6.9 mph - N/A   Clear
6:35 PM 0.1 °F -11.4 °F -9.0 °F 65% 30.17 in 10.0 mi WSW 5.8 mph - N/A   Clear
6:55 PM -0.4 °F -12.0 °F -9.4 °F 66% 30.16 in 10.0 mi WSW 5.8 mph - N/A   Clear
7:15 PM -0.6 °F -12.2 °F -9.4 °F 66% 30.15 in 10.0 mi WSW 5.8 mph - N/A   Clear
7:40 PM -0.6 °F -10.6 °F -9.4 °F 66% 30.15 in 10.0 mi WSW 4.6 mph - N/A   Clear
7:55 PM -0.4 °F -10.4 °F -9.2 °F 66% 30.15 in 10.0 mi SW 4.6 mph - N/A   Clear
8:15 PM -1.1 °F -12.9 °F -9.4 °F 68% 30.15 in 10.0 mi West 5.8 mph - N/A   Clear
8:35 PM -1.3 °F -13.1 °F -10.7 °F 65% 30.15 in 10.0 mi West 5.8 mph - N/A   Clear
8:55 PM -1.8 °F -13.7 °F -10.5 °F 67% 30.14 in 10.0 mi WSW 5.8 mph - N/A   Clear
9:15 PM -1.3 °F -11.4 °F -9.4 °F 69% 30.14 in 10.0 mi WSW 4.6 mph - N/A   Clear
9:35 PM -0.8 °F -15.1 °F -9.4 °F 67% 30.14 in 10.0 mi West 8.1 mph - N/A   Mostly Cloudy
9:55 PM -0.2 °F -13.2 °F -8.7 °F 67% 30.15 in 10.0 mi WSW 6.9 mph - N/A   Overcast
10:15 PM 0.1 °F -11.4 °F -8.5 °F 67% 30.14 in 10.0 mi WSW 5.8 mph - N/A   Overcast
10:35 PM 0.7 °F -9.1 °F -7.8 °F 68% 30.13 in 10.0 mi WSW 4.6 mph - N/A   Overcast
10:55 PM 1.4 °F -9.9 °F -6.9 °F 68% 30.13 in 10.0 mi SW 5.8 mph - N/A   Overcast
11:15 PM 1.6 °F -9.7 °F -6.9 °F 68% 30.12 in 10.0 mi SW 5.8 mph - N/A   Overcast
11:35 PM 1.4 °F -11.3 °F -7.4 °F 67% 30.12 in 10.0 mi SSW 6.9 mph - N/A   Overcast
11:55 PM 1.0 °F -11.7 °F -7.6 °F 67% 30.10 in 10.0 mi SSW 6.9 mph - N/A   Overcast